Theta_e
346 344 341 339 339 339 337 336 337 338 339 339 339 339 338 337 337 338 338 338 338 338 337 337 337 337 337 338 338 339 339 339 341 343 345 345 346 346 345 344 343 343
347 346 344 342 341 340 339 338 338 338 338 338 339 339 338 337 337 337 338 337 337 337 337 337 337 336 337 337 337 338 338 338 339 341 343 344 344 345 345 344 344 344
347 346 345 343 342 342 342 341 340 339 339 338 338 338 338 338 338 338 338 338 337 337 337 337 336 336 336 336 337 337 337 338 338 340 342 343 343 343 343 344 344 344
347 346 345 344 343 343 343 342 341 341 340 339 338 338 338 338 338 338 338 338 338 337 337 336 336 335 335 336 336 336 337 337 337 338 339 341 341 341 342 343 343 344
348 348 346 344 344 344 343 343 342 341 341 339 338 338 338 337 338 338 338 338 338 338 337 336 335 335 335 336 336 336 336 337 337 337 337 338 339 339 339 340 341 342
348 348 347 346 345 343 342 342 341 341 340 339 338 338 338 337 337 337 337 337 338 338 338 336 334 333 334 336 337 337 337 337 337 336 336 336 337 337 337 337 338 340
347 347 347 348 347 345 343 341 340 339 339 338 338 337 337 337 337 337 337 337 337 338 338 336 334 332 333 335 337 338 338 338 337 336 336 336 336 336 336 336 336 337
347 347 347 347 348 347 345 343 341 339 339 339 338 337 337 337 336 336 336 336 337 337 337 336 333 333 333 333 336 337 337 337 337 337 336 336 336 335 335 335 336 336
348 348 347 347 348 347 346 345 342 340 339 338 338 337 337 337 336 336 335 335 336 335 335 334 333 333 333 333 333 335 335 336 336 336 337 337 336 336 336 336 336 335
348 348 348 348 348 347 347 346 344 342 339 338 338 337 337 336 336 335 336 336 335 335 333 332 332 333 333 333 332 332 334 335 336 337 337 337 336 336 336 336 336 335
348 348 349 348 348 347 346 346 346 345 342 339 338 337 336 335 335 335 335 335 334 333 331 330 330 331 333 333 333 333 333 334 335 336 336 336 335 335 335 335 335 334
348 348 348 348 348 347 346 347 347 347 345 342 340 337 336 335 334 334 334 333 332 331 330 329 329 330 332 333 333 333 332 332 332 333 334 335 334 334 334 334 333 333
347 347 348 348 347 347 347 347 347 347 346 345 343 340 338 336 334 333 332 332 331 330 329 328 328 329 330 331 332 332 331 332 331 330 332 333 333 333 333 333 332 332
347 347 348 348 347 347 347 347 347 347 347 347 345 343 340 336 334 332 331 331 331 330 329 329 329 328 328 329 331 331 331 330 330 330 331 331 332 332 332 332 331 331
346 347 347 348 347 347 347 347 347 347 347 347 346 344 341 339 336 334 333 331 331 331 330 330 329 328 328 328 329 330 330 330 329 329 329 329 330 330 330 330 330 330
346 347 347 348 348 347 347 347 347 347 347 347 347 346 344 341 339 336 334 333 332 332 331 331 330 329 328 328 327 328 328 328 328 328 328 328 328 329 329 329 329 329
347 347 348 347 348 348 348 348 348 347 348 348 348 348 346 344 342 340 337 335 333 333 332 332 331 330 328 328 328 328 328 328 328 328 328 328 328 328 328 329 329 329
347 348 348 348 348 348 348 348 348 347 348 348 348 348 348 347 346 344 340 337 335 334 332 332 330 329 328 328 328 328 328 329 329 329 329 328 328 328 328 328 328 328
348 347 348 348 347 347 348 347 348 348 347 348 349 348 349 349 349 347 344 341 338 335 333 332 331 329 328 328 329 328 328 329 329 329 329 328 328 328 328 328 328 329
348 347 348 347 347 347 347 347 347 348 348 349 348 349 349 350 350 350 348 346 342 339 335 333 332 330 328 328 328 328 329 329 329 330 330 329 329 328 329 329 329 329
348 348 347 347 347 347 348 348 347 348 349 348 349 349 350 350 351 351 350 348 346 343 340 337 334 331 330 329 329 329 329 330 331 331 331 330 330 329 330 330 330 331
348 347 347 347 347 347 348 348 348 349 348 349 349 349 350 350 351 351 351 351 350 348 346 342 336 334 333 331 331 331 332 332 332 332 332 332 332 331 331 331 332 332
348 348 348 347 348 348 348 349 349 349 349 350 350 350 350 351 351 352 353 353 352 352 351 346 340 336 335 334 333 333 335 335 334 333 334 333 332 333 333 333 333 333
348 348 348 348 348 349 349 349 350 350 351 350 351 352 352 352 352 353 353 354 354 355 355 352 346 343 340 339 338 337 338 338 337 337 337 336 335 334 334 334 334 334
348 348 348 349 349 350 350 350 350 351 351 352 352 352 353 353 353 354 355 356 356 356 357 356 354 352 348 345 344 344 344 344 344 344 343 340 338 337 335 335 336 335
348 349 349 350 350 350 350 351 351 352 352 352 353 354 354 355 355 356 356 357 358 358 358 358 357 356 354 351 349 349 349 350 351 350 348 345 343 342 341 339 339 338
Wind_Speed
33 33 33 33 32 32 32 31 30 29 28 27 26 24 23 21 19 18 18 17 17 17 17 16 15 14 13 12 12 12 12 12 12 12 12 12 11 10 9 9 9 9
33 33 33 33 33 32 32 31 30 29 28 27 25 24 22 21 20 19 19 18 17 17 17 17 16 16 15 14 13 13 13 13 13 13 13 13 12 11 11 10 10 10
33 33 33 34 33 33 32 31 31 30 28 27 26 24 23 21 21 20 19 19 18 18 18 18 18 17 17 16 15 15 15 14 14 14 14 14 13 13 12 11 11 11
32 32 32 33 33 33 32 32 31 30 29 28 27 25 24 23 22 20 20 19 19 19 19 19 19 19 18 18 17 17 16 16 15 15 15 15 15 14 13 13 13 12
33 32 31 31 32 32 32 32 31 30 29 28 27 26 25 24 23 22 21 20 19 19 20 20 20 20 19 19 19 18 18 17 17 16 17 16 16 15 14 14 14 13
33 32 31 30 30 30 30 30 30 30 29 28 27 27 26 25 25 24 23 21 20 19 19 20 21 21 21 20 20 20 19 19 18 18 18 17 17 17 16 15 15 15
34 33 32 31 30 29 29 29 29 29 28 27 27 27 26 26 26 25 24 23 21 21 20 20 21 22 23 22 22 22 21 20 19 19 19 18 18 18 17 17 17 16
34 33 32 32 31 30 28 28 29 28 28 27 27 26 26 26 26 26 25 24 23 22 21 20 21 22 24 24 24 23 22 22 21 20 20 19 19 19 18 18 17 17
34 33 33 32 32 30 29 28 29 29 28 28 27 26 27 26 26 26 26 26 25 24 23 22 21 22 24 25 25 25 24 23 22 21 21 20 20 19 19 18 18 18
35 34 34 33 32 31 30 29 29 29 29 29 28 28 28 27 27 27 27 27 26 26 25 24 23 23 24 25 25 25 24 23 23 22 22 21 21 20 20 20 19 19
37 36 35 34 33 32 31 30 29 29 28 28 29 29 29 28 28 29 29 28 28 27 26 26 25 25 25 25 25 24 24 23 23 23 23 22 22 21 21 20 20 20
39 37 36 34 33 33 32 31 30 29 28 27 27 28 29 29 30 30 30 29 28 27 27 27 27 27 26 26 26 26 25 24 24 24 24 24 23 22 22 21 21 21
40 38 36 35 34 33 32 31 31 30 28 27 26 27 27 28 29 30 30 29 28 27 27 28 28 28 28 28 28 27 26 25 24 24 25 25 25 24 24 23 23 23
39 37 36 35 34 33 32 31 31 30 28 27 27 27 27 28 29 29 30 29 29 28 28 28 28 29 30 30 29 28 27 26 26 26 26 26 26 26 26 26 26 26
39 38 36 35 34 33 32 32 32 31 29 29 28 28 28 28 29 29 30 30 30 30 29 29 29 30 31 31 30 29 29 28 28 27 27 28 28 28 28 28 28 28
39 38 37 37 36 34 34 33 33 32 31 30 30 29 29 30 30 31 31 31 31 32 31 31 31 31 31 31 30 30 29 29 29 29 28 28 29 29 29 29 29 29
40 40 39 38 37 36 35 35 34 33 33 32 31 31 31 31 32 32 32 32 33 33 33 33 33 32 31 31 30 30 30 29 30 30 29 29 30 30 30 30 30 29
41 40 40 39 38 37 36 34 34 34 33 33 33 32 32 32 33 33 33 33 34 34 34 34 34 33 32 31 31 31 30 30 30 30 30 30 30 31 31 30 30 30
40 39 39 38 37 36 34 34 34 34 35 34 33 33 33 33 33 32 33 33 34 35 36 36 35 34 33 32 31 31 31 31 31 31 31 32 31 31 31 31 30 30
39 38 38 37 35 35 34 34 35 35 35 34 33 33 33 33 32 32 32 33 33 35 36 36 36 35 34 33 32 32 32 31 32 32 32 32 32 32 32 31 31 30
39 38 37 36 35 34 35 35 35 35 35 34 33 33 33 33 32 32 32 32 32 33 35 36 36 36 35 34 33 32 32 32 32 32 32 33 33 33 32 32 31 30
39 37 36 35 34 34 35 35 35 35 34 33 33 34 34 33 33 32 32 32 31 32 33 35 36 35 35 34 33 32 32 32 32 32 32 33 33 33 32 31 30 29
38 37 36 35 35 35 36 36 35 34 34 34 34 35 35 35 33 32 32 32 31 32 32 33 34 34 33 33 32 31 31 32 32 32 32 33 33 32 31 30 29 28
37 36 35 34 34 35 35 34 33 33 32 33 34 34 34 34 33 32 32 32 32 32 32 32 32 32 32 31 31 31 31 31 31 31 32 32 32 31 31 30 29 28
34 33 32 32 32 32 32 31 30 30 30 31 31 32 32 32 31 32 32 31 31 31 30 31 31 31 31 31 30 30 30 30 30 30 31 31 31 30 30 29 28 27
31 30 30 30 29 28 28 27 27 27 28 29 30 30 30 30 30 30 30 30 29 29 29 30 30 30 30 30 29 29 29 29 28 29 30 30 29 28 27 27 26 25
Wind_Direction
227 228 228 229 229 229 231 232 232 231 232 232 231 231 230 232 231 230 230 229 231 233 233 235 237 241 244 245 245 246 247 249 252 258 261 263 264 263 262 262 261 261
226 226 227 229 230 230 231 232 233 233 233 233 234 234 234 234 234 232 231 230 230 231 233 235 238 240 243 245 246 248 250 251 251 256 261 264 266 265 264 263 263 264
225 225 226 228 230 231 231 232 233 234 235 235 235 236 236 236 236 234 232 232 232 232 234 236 239 241 243 245 247 248 251 253 252 255 259 261 263 263 263 263 263 265
224 224 225 227 230 231 232 233 234 234 235 235 235 235 236 236 237 236 236 234 234 235 236 238 240 242 243 243 245 247 249 251 252 254 256 259 262 263 263 263 263 264
225 224 224 226 228 231 232 233 234 235 235 235 235 235 235 236 237 237 237 236 235 236 238 239 240 241 242 242 243 244 246 249 251 253 256 258 262 264 265 264 263 264
225 225 224 225 227 230 232 233 234 234 235 235 235 235 235 236 237 238 238 238 237 238 239 240 239 239 239 239 241 242 243 246 249 252 255 258 260 263 265 265 264 264
224 225 225 226 228 230 231 232 233 233 233 234 235 235 235 236 237 238 239 239 240 240 239 239 239 238 238 239 239 241 242 245 248 251 254 257 259 261 263 264 265 264
223 224 225 227 229 230 231 231 232 232 232 233 233 234 235 236 236 238 239 240 241 241 239 239 238 237 238 239 239 241 243 245 248 251 254 257 258 260 261 263 265 265
224 224 225 226 228 230 230 231 232 232 232 232 233 234 234 235 235 237 238 239 241 241 239 238 238 237 238 239 240 241 243 245 247 250 253 256 257 258 259 261 263 265
224 224 225 226 227 229 229 230 232 233 233 232 232 234 235 234 235 236 238 239 241 240 238 236 235 235 237 238 239 240 242 243 245 248 251 254 255 256 257 258 261 263
224 224 225 225 226 227 228 230 232 233 233 232 232 234 235 235 235 237 238 240 240 239 236 233 233 234 235 236 237 238 240 242 244 247 250 253 254 255 256 257 259 262
224 224 225 225 225 226 227 229 231 232 232 231 231 233 234 235 236 238 239 240 239 238 235 233 232 233 234 235 237 239 241 244 246 247 250 253 254 255 256 258 260 263
223 223 224 225 226 226 227 229 231 232 233 231 231 232 233 235 236 238 239 240 239 238 235 234 233 234 234 235 238 241 244 245 246 248 250 252 254 255 257 260 262 264
221 223 224 225 227 227 228 230 231 232 233 232 232 232 233 234 236 238 239 239 239 238 237 236 235 236 236 237 238 241 243 245 246 248 249 251 254 256 258 261 264 266
221 222 224 226 228 228 228 230 231 231 232 232 232 232 232 233 235 237 239 240 240 239 239 239 238 237 237 237 238 240 242 245 247 248 250 252 254 257 259 262 264 266
222 223 224 225 227 228 228 229 230 231 231 231 231 231 232 233 234 235 237 239 240 240 240 240 239 238 238 239 240 242 244 246 248 250 252 254 256 258 260 262 264 265
222 223 224 226 227 228 229 229 230 231 231 231 231 231 232 232 233 234 235 237 239 240 241 241 241 239 239 240 241 243 245 248 250 252 254 255 257 259 260 262 264 266
223 224 225 226 228 229 230 231 232 233 233 233 233 233 233 234 234 235 234 235 237 239 240 242 242 241 241 241 242 243 246 249 252 254 256 257 258 259 261 263 265 267
223 225 226 227 229 229 231 232 233 234 235 235 235 235 236 236 237 237 237 236 237 238 239 241 243 243 242 242 242 244 245 248 252 255 257 259 260 261 263 264 266 268
223 225 226 228 229 229 231 232 233 234 235 236 237 238 239 239 240 240 240 239 239 239 240 241 242 243 243 243 243 244 246 248 251 254 256 258 260 261 263 264 266 268
223 224 226 227 228 230 231 232 234 235 236 236 237 239 240 241 242 242 242 241 241 241 242 242 241 241 242 242 243 244 246 248 250 253 255 257 259 260 262 264 266 268
223 224 225 226 227 229 231 232 234 235 235 236 238 239 241 242 242 243 244 244 244 244 245 244 242 241 242 242 242 244 246 248 250 251 253 255 257 259 261 264 266 268
224 224 225 226 227 229 230 232 234 235 236 237 239 240 242 243 243 244 245 246 245 245 247 246 244 243 243 242 243 244 246 248 250 251 254 255 257 259 261 263 265 266
225 226 226 228 229 230 232 233 235 237 238 240 241 242 244 245 245 246 247 248 248 248 249 248 246 245 244 243 243 243 245 248 249 252 254 255 257 259 260 261 262 262
226 227 228 229 231 232 234 235 237 238 239 241 242 243 245 246 247 248 249 249 250 250 250 250 248 247 246 244 243 243 245 247 249 251 253 254 256 257 258 259 259 259
226 227 228 229 230 232 233 234 235 236 238 240 241 242 244 245 246 247 248 248 248 249 249 249 248 247 246 244 242 243 244 246 248 249 251 253 255 256 257 257 257 256